FW0864 Weather Reports


Display with metric or nautical units.
time (UTC)temp
F
wind
direction
speed
MPH
gust
MPH
rain 1hr
in
rain 24hr
in
rain mn
in
humidity
%
barometer
mb
20260507234551 86 288 6.0 14.0 0.00 0.00 0.00 46 1010.7
20260507234055 86 305 5.0 14.0 0.00 0.00 0.00 46 1010.8
20260507233549 86 40 5.0 13.0 0.00 0.00 0.00 46 1010.7
20260507233049 86 269 5.0 10.0 0.00 0.00 0.00 46 1010.8
20260507232549 86 16 5.0 11.0 0.00 0.00 0.00 46 1010.8
20260507232048 86 289 5.0 11.0 0.00 0.00 0.00 46 1010.9
20260507231553 86 281 4.0 11.0 0.00 0.00 0.00 45 1011.0
20260507231049 86 322 4.0 10.0 0.00 0.00 0.00 45 1011.1
20260507230549 86 25 5.0 12.0 0.00 0.00 0.00 44 1011.1
20260507230045 86 4 2.0 10.0 0.00 0.00 0.00 46 1011.1
20260507225545 86 320 4.0 13.0 0.00 0.00 0.00 46 1011.2
20260507225044 85 280 6.0 13.0 0.00 0.00 0.00 46 1011.3
20260507224543 85 330 6.0 12.0 0.00 0.00 0.00 46 1011.4
20260507224043 85 303 4.0 12.0 0.00 0.00 0.00 46 1011.4
20260507223544 85 322 6.0 11.0 0.00 0.00 0.00 46 1011.5
20260507223041 86 287 4.0 11.0 0.00 0.00 0.00 45 1011.6
20260507222541 85 273 5.0 11.0 0.00 0.00 0.00 45 1011.7
20260507222038 85 287 2.0 10.0 0.00 0.00 0.00 46 1011.7
20260507221539 85 283 5.0 12.0 0.00 0.00 0.00 46 1011.8
20260507221037 84 343 4.0 12.0 0.00 0.00 0.00 47 1011.8
20260507220539 85 248 5.0 12.0 0.00 0.00 0.00 46 1011.9
20260507220036 84 306 5.0 11.0 0.00 0.00 0.00 47 1012.0
20260507215536 84 251 5.0 11.0 0.00 0.00 0.00 48 1012.1
20260507215035 83 312 6.0 11.0 0.00 0.00 0.00 48 1012.1
20260507214534 83 261 6.0 11.0 0.00 0.00 0.00 47 1012.2
20260507214034 84 328 3.0 13.0 0.00 0.00 0.00 47 1012.3
20260507213534 85 322 5.0 13.0 0.00 0.00 0.00 45 1012.4
20260507213039 84 227 4.0 12.0 0.00 0.00 0.00 47 1012.3
20260507212533 84 10 5.0 12.0 0.00 0.00 0.00 45 1012.4
20260507212035 85 273 2.0 9.0 0.00 0.00 0.00 45 1012.5
20260507211542 84 297 4.0 9.0 0.00 0.00 0.00 46 1012.6
20260507211029 84 8 3.0 9.0 0.00 0.00 0.00 45 1012.6
20260507210528 83 31 4.0 9.0 0.00 0.00 0.00 46 1012.7
20260507210028 83 320 3.0 11.0 0.00 0.00 0.00 47 1012.8
20260507205529 83 326 4.0 6.0 0.00 0.00 0.00 47 1012.9
20260507205027 82 359 2.0 9.0 0.00 0.00 0.00 48 1012.9
20260507204525 81 248 4.0 12.0 0.00 0.00 0.00 47 1013.0
20260507204025 82 264 3.0 12.0 0.00 0.00 0.00 47 1013.1
20260507203525 82 4 3.0 10.0 0.00 0.00 0.00 48 1013.1
20260507203024 82 318 4.0 9.0 0.00 0.00 0.00 47 1013.1
20260507202523 83 269 4.0 9.0 0.00 0.00 0.00 47 1013.2
20260507202022 82 252 2.0 8.0 0.00 0.00 0.00 48 1013.2
20260507201522 81 10 2.0 8.0 0.00 0.00 0.00 51 1013.3
20260507201020 80 328 3.0 10.0 0.00 0.00 0.00 50 1013.3
20260507200519 81 327 5.0 9.0 0.00 0.00 0.00 50 1013.4
20260507200019 81 345 3.0 8.0 0.00 0.00 0.00 50 1013.4
20260507195517 80 293 2.0 8.0 0.00 0.00 0.00 50 1013.5
20260507195019 80 264 4.0 9.0 0.00 0.00 0.00 50 1013.5
20260507194517 80 268 3.0 9.0 0.00 0.00 0.00 49 1013.6
20260507194015 80 218 1.0 8.0 0.00 0.00 0.00 51 1013.6
20260507193515 79 327 2.0 10.0 0.00 0.00 0.00 51 1013.7
20260507193019 79 275 6.0 10.0 0.00 0.00 0.00 51 1013.8
20260507192513 80 295 3.0 8.0 0.00 0.00 0.00 51 1013.8
20260507192013 80 229 3.0 8.0 0.00 0.00 0.00 50 1013.8
20260507191512 80 89 3.0 8.0 0.00 0.00 0.00 52 1013.9
20260507191010 79 260 2.0 7.0 0.00 0.00 0.00 53 1014.1
20260507190513 78 354 3.0 10.0 0.00 0.00 0.00 53 1014.1
20260507190012 78 312 5.0 10.0 0.00 0.00 0.00 52 1014.2
20260507185509 78 309 1.0 6.0 0.00 0.00 0.00 53 1014.3
20260507185008 78 315 3.0 6.0 0.00 0.00 0.00 52 1014.4
20260507184507 79 11 3.0 6.0 0.00 0.00 0.00 50 1014.5
20260507184007 79 316 0.0 4.0 0.00 0.00 0.00 51 1014.5
20260507183505 78 337 1.0 6.0 0.00 0.00 0.00 52 1014.5
20260507183008 77 37 2.0 8.0 0.00 0.00 0.00 54 1014.6
20260507182502 77 36 3.0 8.0 0.00 0.00 0.00 54 1014.6
20260507182001 76 314 0.0 8.0 0.00 0.00 0.00 57 1014.6
20260507181559 75 295 3.0 8.0 0.00 0.00 0.00 57 1014.6
20260507181059 75 337 2.0 9.0 0.00 0.00 0.00 57 1014.6
20260507180559 74 238 2.0 9.0 0.00 0.00 0.00 58 1014.6
20260507180105 75 277 3.0 7.0 0.00 0.00 0.00 58 1014.7
20260507175555 75 284 4.0 9.0 0.00 0.00 0.00 58 1014.7
20260507175054 75 233 4.0 9.0 0.00 0.00 0.00 58 1014.7
20260507174622 75 10 1.0 6.0 0.00 0.00 0.00 60 1014.7
20260507174051 74 287 3.0 6.0 0.00 0.00 0.00 61 1014.8
20260507173551 73 284 2.0 8.0 0.00 0.00 0.00 61 1014.8
20260507173049 73 298 3.0 8.0 0.00 0.00 0.00 61 1014.8
20260507172550 73 324 1.0 7.0 0.00 0.00 0.00 63 1014.7
20260507172047 73 235 2.0 8.0 0.00 0.00 0.00 63 1014.9
20260507171601 73 15 2.0 5.0 0.00 0.00 0.00 63 1014.9
20260507171043 71 102 2.0 8.0 0.00 0.00 0.00 66 1014.9
20260507170542 71 340 4.0 8.0 0.00 0.00 0.00 66 1014.9
20260507170041 71 326 3.0 8.0 0.00 0.00 0.00 67 1014.9
20260507165541 71 334 2.0 5.0 0.00 0.00 0.00 68 1015.0
20260507165039 71 285 2.0 7.0 0.00 0.00 0.00 68 1015.1
20260507164538 69 343 3.0 7.0 0.00 0.00 0.00 70 1015.1
20260507164035 69 349 1.0 8.0 0.00 0.00 0.00 72 1015.1
20260507163534 69 259 5.0 8.0 0.00 0.00 0.00 71 1015.2
20260507163032 68 321 3.0 6.0 0.00 0.00 0.00 73 1015.2
20260507162531 68 324 2.0 9.0 0.00 0.00 0.00 74 1015.2
20260507162031 67 292 2.0 9.0 0.00 0.00 0.00 75 1015.2
20260507161530 67 320 2.0 8.0 0.00 0.00 0.00 76 1015.2
20260507161027 66 322 3.0 8.0 0.00 0.00 0.00 77 1015.2
20260507160527 66 241 3.0 8.0 0.00 0.00 0.00 77 1015.3
20260507160030 65 319 2.0 8.0 0.00 0.00 0.00 78 1015.3
20260507155526 65 333 3.0 8.0 0.00 0.00 0.00 79 1015.3
20260507155025 65 273 3.0 7.0 0.00 0.00 0.00 79 1015.3
20260507154524 64 327 3.0 7.0 0.00 0.00 0.00 80 1015.3
20260507154022 64 305 3.0 7.0 0.00 0.00 0.00 80 1015.3
20260507153521 64 264 4.0 8.0 0.00 0.00 0.00 81 1015.3
20260507153025 63 290 3.0 8.0 0.00 0.00 0.00 82 1015.2
20260507152519 63 332 2.0 5.0 0.00 0.00 0.00 83 1015.3
20260507152020 62 264 3.0 5.0 0.00 0.00 0.00 84 1015.3
20260507151517 62 325 3.0 7.0 0.00 0.00 0.00 84 1015.3
20260507151015 62 298 3.0 7.0 0.00 0.00 0.00 85 1015.3
20260507150515 61 327 3.0 5.0 0.00 0.00 0.00 85 1015.2
20260507150017 61 335 2.0 5.0 0.00 0.00 0.00 86 1015.3
20260507145514 61 306 2.0 5.0 0.00 0.00 0.00 86 1015.4
20260507145016 60 314 1.0 4.0 0.00 0.00 0.00 87 1015.4
20260507144510 60 343 1.0 3.0 0.00 0.00 0.00 87 1015.4
20260507144009 60 305 1.0 6.0 0.00 0.00 0.00 87 1015.4
20260507143508 59 321 4.0 6.0 0.00 0.00 0.00 87 1015.4
20260507143007 59 348 3.0 5.0 0.00 0.00 0.00 87 1015.3
20260507142508 59 335 2.0 5.0 0.00 0.00 0.00 88 1015.3
20260507142003 59 290 1.0 5.0 0.00 0.00 0.00 88 1015.3
20260507141502 59 310 2.0 5.0 0.00 0.00 0.00 88 1015.2
20260507141100 59 335 2.0 5.0 0.00 0.00 0.00 88 1015.2
20260507140600 58 354 3.0 5.0 0.00 0.00 0.00 88 1015.2
20260507140113 58 305 1.0 3.0 0.00 0.00 0.00 88 1015.1
20260507135556 58 297 0.0 3.0 0.00 0.00 0.00 88 1015.0
20260507135056 58 295 1.0 3.0 0.00 0.00 0.00 88 1015.0
20260507134600 58 343 1.0 3.0 0.00 0.00 0.00 88 1015.0
20260507134054 58 288 0.0 2.0 0.00 0.00 0.00 88 1014.9
20260507133553 58 267 0.0 2.0 0.00 0.00 0.00 88 1014.8
20260507133059 58 283 0.0 1.0 0.00 0.00 0.00 88 1014.8
20260507132550 58 293 0.0 0.0 0.00 0.00 0.00 88 1014.7
20260507132050 58 291 0.0 3.0 0.00 0.00 0.00 88 1014.7
20260507131614 58 290 1.0 3.0 0.00 0.00 0.00 88 1014.6
20260507131049 58 320 0.0 2.0 0.00 0.00 0.00 88 1014.6
20260507130547 58 294 0.0 3.0 0.00 0.00 0.00 87 1014.6
20260507130047 58 294 0.0 3.0 0.00 0.00 0.00 87 1014.5
20260507125547 58 295 0.0 2.0 0.00 0.00 0.00 87 1014.6
20260507125046 58 288 0.0 3.0 0.00 0.00 0.00 87 1014.6
20260507124553 58 287 1.0 3.0 0.00 0.00 0.00 87 1014.6
20260507124046 58 288 1.0 3.0 0.00 0.00 0.00 87 1014.5
20260507123546 58 289 0.0 1.0 0.00 0.00 0.00 87 1014.5
20260507123047 59 289 0.0 0.0 0.00 0.00 0.00 87 1014.5
20260507122545 59 294 0.0 0.0 0.00 0.00 0.00 86 1014.5
20260507122049 59 295 0.0 0.0 0.00 0.00 0.00 86 1014.5
20260507121545 59 294 0.0 0.0 0.00 0.00 0.00 86 1014.5
20260507121044 59 294 0.0 0.0 0.00 0.00 0.00 86 1014.5
20260507120543 59 295 0.0 0.0 0.00 0.00 0.00 86 1014.5
20260507120044 59 294 0.0 0.0 0.00 0.00 0.00 86 1014.5
20260507115542 59 295 0.0 0.0 0.00 0.00 0.00 86 1014.5
20260507115041 59 289 0.0 0.0 0.00 0.00 0.00 86 1014.4
20260507114541 59 292 0.0 0.0 0.00 0.00 0.00 85 1014.4
20260507114046 59 293 0.0 0.0 0.00 0.00 0.00 85 1014.5
20260507113540 59 293 0.0 1.0 0.00 0.00 0.00 85 1014.5
20260507113103 60 283 0.0 3.0 0.00 0.00 0.00 85 1014.6
20260507112543 60 272 1.0 3.0 0.00 0.00 0.00 85 1014.6
20260507112039 60 314 0.0 2.0 0.00 0.00 0.00 85 1014.6
20260507111539 60 314 1.0 2.0 0.00 0.00 0.00 85 1014.6
20260507111037 60 316 1.0 2.0 0.00 0.00 0.00 85 1014.5
20260507110537 60 320 0.0 2.0 0.00 0.00 0.00 85 1014.5
20260507110040 60 331 0.0 3.0 0.00 0.00 0.00 84 1014.5
20260507105537 60 331 0.0 3.0 0.00 0.00 0.00 84 1014.5
20260507105036 60 335 0.0 2.0 0.00 0.00 0.00 84 1014.5
20260507104536 60 335 0.0 2.0 0.00 0.00 0.00 84 1014.5
20260507104035 60 335 0.0 3.0 0.00 0.00 0.00 84 1014.5
20260507103535 60 325 1.0 3.0 0.00 0.00 0.00 84 1014.4
20260507103034 60 297 1.0 3.0 0.00 0.00 0.00 84 1014.4
20260507102535 60 330 1.0 3.0 0.00 0.00 0.00 84 1014.4
20260507102033 61 8 1.0 3.0 0.00 0.00 0.00 83 1014.5
20260507101532 61 320 1.0 4.0 0.00 0.00 0.00 83 1014.4
20260507101031 61 310 2.0 4.0 0.00 0.00 0.00 83 1014.4
20260507100529 61 278 2.0 4.0 0.00 0.00 0.00 83 1014.5
20260507100041 61 313 2.0 4.0 0.00 0.00 0.00 83 1014.5
20260507095532 61 300 1.0 4.0 0.00 0.00 0.00 83 1014.4
20260507095033 61 317 1.0 3.0 0.00 0.00 0.00 83 1014.5
20260507094529 61 294 1.0 3.0 0.00 0.00 0.00 83 1014.5
20260507094028 61 297 0.0 3.0 0.00 0.00 0.00 83 1014.5
20260507093527 61 293 1.0 3.0 0.00 0.00 0.00 83 1014.6
20260507093031 61 329 0.0 3.0 0.00 0.00 0.00 83 1014.6
20260507092527 61 340 1.0 3.0 0.00 0.00 0.00 83 1014.7
20260507092026 61 334 1.0 3.0 0.00 0.00 0.00 82 1014.6
20260507091529 62 330 0.0 3.0 0.00 0.00 0.00 82 1014.7
20260507091025 62 317 1.0 3.0 0.00 0.00 0.00 82 1014.7
20260507090525 62 328 0.0 2.0 0.00 0.00 0.00 82 1014.7
20260507090024 62 335 0.0 2.0 0.00 0.00 0.00 81 1014.8
20260507085523 62 344 0.0 4.0 0.00 0.00 0.00 81 1014.8
20260507085023 62 321 2.0 5.0 0.00 0.00 0.00 81 1014.8
20260507084542 62 335 2.0 5.0 0.00 0.00 0.00 80 1014.8
20260507084022 62 325 1.0 4.0 0.00 0.00 0.00 80 1014.8
20260507083520 63 332 2.0 4.0 0.00 0.00 0.00 79 1014.9
20260507083024 63 316 2.0 4.0 0.00 0.00 0.00 79 1014.9
20260507082519 63 269 2.0 4.0 0.00 0.00 0.00 78 1014.9
20260507082018 63 301 0.0 4.0 0.00 0.00 0.00 78 1014.9
20260507081517 64 311 1.0 5.0 0.00 0.00 0.00 77 1014.8
20260507081017 64 320 2.0 5.0 0.00 0.00 0.00 77 1014.9
20260507080515 64 354 3.0 5.0 0.00 0.00 0.00 76 1014.9
20260507080016 64 322 2.0 4.0 0.00 0.00 0.00 76 1014.8
20260507075513 65 295 2.0 5.0 0.00 0.00 0.00 76 1014.8
20260507075019 65 307 2.0 5.0 0.00 0.00 0.00 75 1014.8
20260507074513 65 335 2.0 6.0 0.00 0.00 0.00 75 1014.8
20260507074011 65 341 3.0 6.0 0.00 0.00 0.00 75 1014.9
20260507073511 65 4 2.0 5.0 0.00 0.00 0.00 74 1014.9
20260507073012 65 327 2.0 5.0 0.00 0.00 0.00 74 1014.9
20260507072512 65 319 1.0 3.0 0.00 0.00 0.00 74 1014.9
20260507072010 65 325 1.0 2.0 0.00 0.00 0.00 73 1014.9
20260507071515 65 325 0.0 1.0 0.00 0.00 0.00 73 1014.9
20260507071009 66 325 0.0 1.0 0.00 0.00 0.00 72 1014.9
20260507070507 66 325 0.0 2.0 0.00 0.00 0.00 72 1014.8
20260507070015 66 325 0.0 2.0 0.00 0.00 0.00 72 1014.8
20260507065505 66 325 0.0 2.0 0.00 0.00 0.00 71 1014.8
20260507065006 66 325 0.0 3.0 0.00 0.00 0.00 71 1014.8
20260507064507 66 322 0.0 2.0 0.00 0.00 0.00 71 1014.8
20260507064006 66 326 0.0 0.0 0.00 0.00 0.00 70 1014.8
20260507063506 67 326 0.0 0.0 0.00 0.00 0.00 70 1014.8
20260507063007 67 326 0.0 0.0 0.00 0.00 0.00 70 1014.7
20260507062505 67 326 0.0 0.0 0.00 0.00 0.00 70 1014.7
20260507062005 67 326 0.0 0.0 0.00 0.00 0.00 69 1014.7
20260507061506 67 326 0.0 0.0 0.00 0.00 0.00 69 1014.8
20260507061007 67 326 0.0 0.0 0.00 0.00 0.00 69 1014.7
20260507060504 67 327 0.0 0.0 0.00 0.00 0.00 69 1014.7
20260507060004 67 327 0.0 0.0 0.00 0.00 0.00 68 1014.7
20260507055505 68 327 0.0 0.0 0.00 0.00 0.00 68 1014.6
20260507055004 68 328 0.0 0.0 0.00 0.00 0.00 67 1014.7
20260507054508 68 329 0.0 0.0 0.00 0.00 0.00 67 1014.7
20260507054004 68 328 0.0 0.0 0.00 0.00 0.00 67 1014.8
20260507053504 68 329 0.0 0.0 0.00 0.00 0.00 66 1014.8
20260507053005 68 329 0.0 0.0 0.00 0.00 0.00 66 1014.7
20260507052504 69 335 0.0 0.0 0.00 0.00 0.00 66 1014.7
20260507052004 69 343 0.0 0.0 0.00 0.00 0.00 65 1014.7
20260507051504 69 311 0.0 0.0 0.00 0.00 0.00 65 1014.8
20260507051006 69 336 0.0 2.0 0.00 0.00 0.00 65 1014.7
20260507050502 69 332 0.0 3.0 0.00 0.00 0.00 65 1014.7
20260507050009 69 330 1.0 3.0 0.00 0.00 0.00 64 1014.7
20260507045503 69 295 0.0 3.0 0.00 0.00 0.00 64 1014.7
20260507045003 70 337 1.0 3.0 0.00 0.00 0.00 64 1014.7
20260507044503 70 328 1.0 3.0 0.00 0.00 0.00 63 1014.7
20260507044002 70 344 1.0 3.0 0.00 0.00 0.00 63 1014.7
20260507043502 70 339 1.0 3.0 0.00 0.00 0.00 63 1014.7
20260507043002 70 271 1.0 3.0 0.00 0.00 0.00 62 1014.7
20260507042503 70 297 1.0 5.0 0.00 0.00 0.00 62 1014.7
20260507042002 70 31 1.0 5.0 0.00 0.00 0.00 62 1014.6
20260507041503 71 343 1.0 4.0 0.00 0.00 0.00 61 1014.6
20260507041001 71 327 0.0 2.0 0.00 0.00 0.00 61 1014.7
20260507040501 71 305 1.0 3.0 0.00 0.00 0.00 60 1014.6
20260507040001 71 310 1.0 3.0 0.00 0.00 0.00 60 1014.6
20260507035501 71 310 0.0 3.0 0.00 0.00 0.00 60 1014.5
20260507035001 71 282 0.0 3.0 0.00 0.00 0.00 59 1014.4
20260507034607 71 306 1.0 3.0 0.00 0.00 0.00 59 1014.4
20260507034100 72 337 1.0 3.0 0.00 0.00 0.00 58 1014.3
20260507033600 72 341 1.0 4.0 0.00 0.00 0.00 58 1014.2
20260507033103 72 337 2.0 5.0 0.00 0.00 0.00 57 1014.1
20260507032559 72 323 2.0 5.0 0.00 0.00 0.00 57 1014.1
20260507032059 73 328 1.0 4.0 0.00 0.00 0.00 56 1014.1
20260507031559 73 330 1.0 3.0 0.00 0.00 0.00 55 1014.1
20260507031059 73 322 1.0 3.0 0.00 0.00 0.00 55 1014.1
20260507030558 73 261 1.0 7.0 0.00 0.00 0.00 54 1014.0
20260507030058 74 276 2.0 7.0 0.00 0.00 0.00 54 1014.0
20260507025558 74 310 2.0 5.0 0.00 0.00 0.00 53 1013.9
20260507025100 74 294 2.0 7.0 0.00 0.00 0.00 53 1013.8
20260507024558 74 315 2.0 5.0 0.00 0.00 0.00 52 1013.8
20260507024107 75 297 2.0 6.0 0.00 0.00 0.00 52 1013.7
20260507023602 75 309 2.0 8.0 0.00 0.00 0.00 51 1013.7
20260507023058 75 347 2.0 8.0 0.00 0.00 0.00 51 1013.7
20260507022557 76 316 3.0 6.0 0.00 0.00 0.00 50 1013.6
20260507022058 76 12 3.0 5.0 0.00 0.00 0.00 49 1013.6
20260507021605 76 328 2.0 8.0 0.00 0.00 0.00 49 1013.5
20260507021057 76 329 2.0 6.0 0.00 0.00 0.00 48 1013.5
20260507020557 76 325 2.0 9.0 0.00 0.00 0.00 48 1013.5
20260507020058 76 335 3.0 10.0 0.00 0.00 0.00 47 1013.5
20260507015556 77 314 3.0 10.0 0.00 0.00 0.00 47 1013.4
20260507015057 77 330 3.0 8.0 0.00 0.00 0.00 46 1013.4
20260507014558 77 297 4.0 8.0 0.00 0.00 0.00 45 1013.4
20260507014056 78 284 4.0 8.0 0.00 0.00 0.00 45 1013.4
20260507013556 78 343 2.0 8.0 0.00 0.00 0.00 46 1013.4
20260507013055 78 250 2.0 8.0 0.00 0.00 0.00 46 1013.4
20260507012559 78 243 3.0 7.0 0.00 0.00 0.00 46 1013.4
20260507012055 78 280 3.0 9.0 0.00 0.00 0.00 45 1013.4
20260507011558 79 311 4.0 9.0 0.00 0.00 0.00 44 1013.3
20260507011054 78 320 3.0 8.0 0.00 0.00 0.00 45 1013.4
20260507010554 79 324 3.0 6.0 0.00 0.00 0.00 44 1013.4
20260507010054 78 256 1.0 8.0 0.00 0.00 0.00 46 1013.4
20260507005554 78 272 4.0 10.0 0.00 0.00 0.00 45 1013.5
20260507005054 78 339 3.0 10.0 0.00 0.00 0.00 46 1013.5
20260507004554 78 256 4.0 8.0 0.00 0.00 0.00 45 1013.5
20260507004053 78 295 4.0 10.0 0.00 0.00 0.00 45 1013.5
20260507003553 78 289 7.0 10.0 0.00 0.00 0.00 46 1013.5
20260507003053 78 306 5.0 11.0 0.00 0.00 0.00 45 1013.6
20260507002552 78 253 5.0 11.0 0.00 0.00 0.00 45 1013.6
20260507002052 78 241 6.0 11.0 0.00 0.00 0.00 45 1013.5
20260507001556 78 10 4.0 11.0 0.00 0.00 0.00 45 1013.6
20260507001052 78 317 4.0 12.0 0.00 0.00 0.00 45 1013.7
20260507000551 78 299 5.0 12.0 0.00 0.00 0.00 45 1013.6
20260507000054 78 269 5.0 11.0 0.00 0.00 0.00 45 1013.6
20260506235551 78 260 2.0 9.0 0.00 0.00 0.00 44 1013.5
20260506235050 78 338 4.0 9.0 0.00 0.00 0.00 45 1013.6